1998-067PP (43639 NORAD) Tracking and Keplerian Element Data

This shows tracking and keplerian element data for the satellite.

Feedback or suggestion? Click here.




ElementValue
Catalog43639
Name1998-067PP
Epoch Orbit673
Epoch Day322.907386
Epoch Year2018
RAAN327.3867
Inclination51.6398
Eccentricity0.0006443
Argument of Perigee31.719
Mean Anonmoly328.4189
Mean Motion15.55227059
Decay Rate8.957E-05
L11 43639U 98067PP 18322.90738600 .00008957 00000-0 13682-3 0 9996
L22 43639 51.6398 327.3867 0006443 31.7190 328.4189 15.55227059 6735

Live tracking and technical data element details for 1998-067PP (NORAD 43639). 1998-067PP can be tracked NOW for your location showing map with azimuth and elevation plus other details from your city location.

Track the satellite on the map from your city or location and see movement details for azimuth, elevation, latitude, longitude, range, height, and movement on the map or in text.







IsCatalogInMostPopularTable: catalog: 43639, numindb: 22
Update: records affected: 1



GetName: 43639 1998-067PP

Hit Count: updated at: Tue, 20 Nov 2018 11:23:19 GMT